Location: Ripley
(48.3812°N, 115.4473°W)
Time: 01:11:05
(UTC+00:00)

VELOX 1 - Pass Details

Date: 01 July 2022
Orbit: 623 x 639 km, 98.4° (Epoch: 17 August)

Event Time Altitude Azimuth Distance (km) Brightness Sun altitude
Rises 10:54:08 0° 127° (SE) 2,925 ? -7.0°
Reaches altitude 10° 10:56:42 10° 112° (ESE) 2,024 ? -6.8°
Maximum altitude 11:00:04 22° 62° (ENE) 1,405 ? -6.4°
Drops below altitude 10° 11:03:28 10° 12° (NNE) 2,042 ? -6.0°
Sets 11:06:04 0° 357° (N) 2,957 ? -5.7°
